TimeAKST,TemperatureF,Dew PointF,Humidity,Sea Level PressureIn,VisibilityMPH,Wind Direction,Wind SpeedMPH,Gust SpeedMPH,PrecipitationIn,Events,Conditions,WindDirDegrees,DateUTC
12:16 AM,-0.4,-5.8,78,29.48,10.0,NNE,9.2,-,N/A,,Clear,20,2013-01-06 09:16:00
12:36 AM,-0.4,-4.0,85,29.47,10.0,NNE,9.2,-,N/A,,Clear,20,2013-01-06 09:36:00
12:56 AM,-0.4,-2.2,92,29.47,10.0,NNE,9.2,-,N/A,,Clear,30,2013-01-06 09:56:00
1:16 AM,-0.4,-7.6,72,29.48,10.0,NNE,9.2,-,N/A,,Clear,30,2013-01-06 10:16:00
1:36 AM,-0.4,-5.8,78,29.48,10.0,NNE,6.9,-,N/A,,Clear,20,2013-01-06 10:36:00
1:56 AM,-2.2,-7.6,78,29.48,8.0,North,6.9,-,N/A,,Clear,10,2013-01-06 10:56:00
2:16 AM,-2.2,-5.8,85,29.48,10.0,North,8.1,-,N/A,,Scattered Clouds,10,2013-01-06 11:16:00
2:36 AM,-2.2,-7.6,78,29.48,10.0,NNE,8.1,-,N/A,,Scattered Clouds,20,2013-01-06 11:36:00
3:16 AM,-5.8,-9.4,84,29.48,2.0,North,6.9,-,N/A,,Overcast,10,2013-01-06 12:16:00
3:36 AM,-5.8,-9.4,84,29.48,8.0,North,9.2,-,N/A,,Scattered Clouds,10,2013-01-06 12:36:00
3:56 AM,-5.8,-9.4,84,29.48,8.0,North,4.6,-,N/A,,Mostly Cloudy,360,2013-01-06 12:56:00
4:16 AM,-7.6,-13.0,77,29.48,10.0,North,4.6,-,N/A,,Overcast,10,2013-01-06 13:16:00
4:36 AM,-7.6,-13.0,77,29.48,10.0,North,4.6,-,N/A,,Overcast,10,2013-01-06 13:36:00
4:56 AM,-9.4,-13.0,84,29.47,2.0,North,4.6,-,N/A,,Overcast,10,2013-01-06 13:56:00
5:16 AM,-9.4,-13.0,84,29.47,0.5,North,9.2,-,N/A,,Overcast,10,2013-01-06 14:16:00
5:36 AM,-9.4,-13.0,84,29.46,0.8,North,9.2,-,N/A,,Overcast,360,2013-01-06 14:36:00
5:56 AM,-9.4,-14.8,77,29.46,0.8,North,11.5,-,N/A,,Overcast,10,2013-01-06 14:56:00
6:16 AM,-9.4,-14.8,77,29.46,1.0,NNE,11.5,-,N/A,,Overcast,20,2013-01-06 15:16:00
6:36 AM,-11.2,-14.8,84,29.47,2.0,North,10.4,-,N/A,,Overcast,10,2013-01-06 15:36:00
6:56 AM,-11.2,-16.6,77,29.47,2.5,North,10.4,-,N/A,,Overcast,10,2013-01-06 15:56:00
7:16 AM,-11.2,-16.6,77,29.47,3.0,NNE,6.9,-,N/A,,Overcast,20,2013-01-06 16:16:00
7:36 AM,-13.0,-16.6,84,29.47,3.0,North,10.4,-,N/A,,Overcast,10,2013-01-06 16:36:00
7:56 AM,-13.0,-18.4,77,29.46,8.0,NNE,11.5,-,N/A,,Overcast,20,2013-01-06 16:56:00
8:36 AM,-13.0,-18.4,77,29.46,7.0,North,10.4,-,N/A,,Overcast,10,2013-01-06 17:36:00
8:56 AM,-13.0,-18.4,77,29.46,5.0,North,9.2,-,N/A,,Overcast,10,2013-01-06 17:56:00
9:16 AM,-14.8,-18.4,84,29.46,5.0,North,9.2,-,N/A,,Overcast,10,2013-01-06 18:16:00
9:36 AM,-14.8,-18.4,84,29.46,6.0,North,10.4,-,N/A,,Overcast,10,2013-01-06 18:36:00
9:56 AM,-14.8,-18.4,84,29.46,9.0,North,9.2,-,N/A,,Overcast,10,2013-01-06 18:56:00
10:16 AM,-14.8,-9999,N/A,29.46,9.0,North,8.1,-,N/A,,Overcast,10,2013-01-06 19:16:00
10:36 AM,-14.8,-9999,N/A,29.46,10.0,North,8.1,-,N/A,,Overcast,10,2013-01-06 19:36:00
10:56 AM,-14.8,-9999,N/A,29.46,9.0,North,9.2,-,N/A,,Overcast,10,2013-01-06 19:56:00
11:16 AM,-14.8,-9999,N/A,29.46,7.0,North,10.4,-,N/A,,Overcast,10,2013-01-06 20:16:00
11:36 AM,-14.8,-9999,N/A,29.46,9.0,NNE,9.2,-,N/A,,Overcast,20,2013-01-06 20:36:00
11:56 AM,-14.8,-9999,N/A,29.45,7.0,North,9.2,-,N/A,,Overcast,10,2013-01-06 20:56:00
12:16 PM,-16.6,-9999,N/A,29.45,6.0,North,9.2,-,N/A,,Overcast,10,2013-01-06 21:16:00
12:36 PM,-16.6,-9999,N/A,29.45,7.0,North,8.1,-,N/A,,Overcast,360,2013-01-06 21:36:00
12:56 PM,-16.6,-9999,N/A,29.45,6.0,North,8.1,-,N/A,,Overcast,360,2013-01-06 21:56:00
1:16 PM,-16.6,-9999,N/A,29.44,8.0,NNE,10.4,-,N/A,,Overcast,20,2013-01-06 22:16:00
1:36 PM,-16.6,-9999,N/A,29.44,10.0,North,10.4,-,N/A,,Overcast,10,2013-01-06 22:36:00
1:56 PM,-16.6,-29.2,53,29.44,4.0,NNE,10.4,16.1,N/A,,Overcast,20,2013-01-06 22:56:00
2:16 PM,-16.6,-29.2,53,29.44,3.0,NNE,11.5,-,N/A,,Overcast,20,2013-01-06 23:16:00
2:36 PM,-16.6,-29.2,53,29.44,3.0,North,10.4,-,N/A,,Overcast,10,2013-01-06 23:36:00
2:56 PM,-16.6,-27.4,58,29.44,5.0,NNE,11.5,-,N/A,,Overcast,20,2013-01-06 23:56:00
3:16 PM,-14.8,-27.4,53,29.44,1.2,NNE,9.2,-,N/A,,Overcast,20,2013-01-07 00:16:00
3:36 PM,-14.8,-27.4,53,29.44,7.0,NNE,11.5,-,N/A,,Overcast,20,2013-01-07 00:36:00
3:56 PM,-16.6,-27.4,58,29.44,4.0,NNE,9.2,-,N/A,,Overcast,20,2013-01-07 00:56:00
4:16 PM,-16.6,-27.4,58,29.43,8.0,NNE,10.4,-,N/A,,Overcast,20,2013-01-07 01:16:00
4:36 PM,-16.6,-27.4,58,29.43,10.0,NNE,10.4,-,N/A,,Overcast,20,2013-01-07 01:36:00
4:56 PM,-16.6,-27.4,58,29.43,10.0,North,8.1,-,N/A,,Overcast,10,2013-01-07 01:56:00
5:16 PM,-16.6,-25.6,64,29.42,7.0,North,10.4,-,N/A,,Overcast,10,2013-01-07 02:16:00
5:36 PM,-14.8,-25.6,58,29.42,8.0,NNE,9.2,-,N/A,,Overcast,20,2013-01-07 02:36:00
6:16 PM,-14.8,-25.6,58,29.42,8.0,NNE,10.4,-,N/A,,Overcast,20,2013-01-07 03:16:00
6:36 PM,-14.8,-25.6,58,29.41,3.0,NNE,11.5,-,N/A,,Overcast,20,2013-01-07 03:36:00
6:56 PM,-16.6,-25.6,64,29.41,9.0,NNE,8.1,-,N/A,,Overcast,30,2013-01-07 03:56:00
7:16 PM,-16.6,-25.6,64,29.41,7.0,NNE,9.2,-,N/A,,Overcast,30,2013-01-07 04:16:00
7:36 PM,-16.6,-25.6,64,29.41,10.0,NNE,10.4,-,N/A,,Overcast,20,2013-01-07 04:36:00
7:56 PM,-16.6,-25.6,64,29.41,10.0,NNE,9.2,-,N/A,,Overcast,20,2013-01-07 04:56:00
8:36 PM,-14.8,-23.8,64,29.40,2.5,NNE,11.5,-,N/A,,Overcast,20,2013-01-07 05:36:00
8:56 PM,-14.8,-25.6,58,29.40,2.5,NNE,9.2,-,N/A,,Overcast,30,2013-01-07 05:56:00
9:16 PM,-14.8,-25.6,58,29.39,1.5,NNE,8.1,-,N/A,,Overcast,20,2013-01-07 06:16:00
9:36 PM,-14.8,-23.8,64,29.38,2.0,NNE,10.4,-,N/A,,Overcast,30,2013-01-07 06:36:00
9:56 PM,-14.8,-23.8,64,29.38,5.0,North,9.2,-,N/A,,Overcast,10,2013-01-07 06:56:00
10:16 PM,-14.8,-23.8,64,29.37,10.0,NNE,10.4,-,N/A,,Overcast,20,2013-01-07 07:16:00
10:36 PM,-14.8,-23.8,64,29.38,4.0,NNE,10.4,-,N/A,,Overcast,30,2013-01-07 07:36:00
10:56 PM,-14.8,-23.8,64,29.37,2.5,NNE,10.4,16.1,N/A,,Overcast,30,2013-01-07 07:56:00
11:16 PM,-14.8,-25.6,58,29.38,2.0,NNE,11.5,-,N/A,,Overcast,30,2013-01-07 08:16:00
11:36 PM,-14.8,-25.6,58,29.38,4.0,NNE,11.5,-,N/A,,Overcast,30,2013-01-07 08:36:00
11:56 PM,-14.8,-25.6,58,29.38,5.0,NNE,9.2,-,N/A,,Overcast,30,2013-01-07 08:56:00